WetterOnline ( http://www.wetteronline.de )

Wetter aktuell Leck

Aktuelles Wetter: Leck (17m)

6-stündlich | Neueste Meldungen
Ortszeit Temperatur Wetter
Sa, 20.10. 20:00 7.1° C bewölkt
Sa, 20.10. 14:00 13.1° C fast wolkenlos
Sa, 20.10. 8:00 10.8° C bedeckt
Sa, 20.10. 2:00 9.1° C bedeckt
Fr, 19.10. 20:00 10.3° C bedeckt
Fr, 19.10. 14:00 12.6° C bedeckt
Fr, 19.10. 8:00 1.9° C bedeckt
Fr, 19.10. 2:00 2.3° C wolkenlos
Ortszeit Temperatur Wetter
So, 21.10. 1:30 8.9° C bewölkt
So, 21.10. 1:20 8.9° C bewölkt
So, 21.10. 1:10 8.8° C bewölkt
So, 21.10. 1:00 7.8° C bedeckt
So, 21.10. 0:50 7.8° C bedeckt
So, 21.10. 0:40 7.5° C bedeckt
So, 21.10. 0:30 7.8° C bewölkt
So, 21.10. 0:00 7.1° C bewölkt
Sa, 20.10. 23:30 7.0° C bewölkt
Sa, 20.10. 23:00 6.1° C leichter Regen
Sa, 20.10. 22:30 6.7° C bewölkt
Ortszeit Relative Feuchte Sichtweite
Sa, 20.10. 20:00 92% 23 km
Sa, 20.10. 14:00 74% 28 km
Sa, 20.10. 8:00 90% 16 km
Sa, 20.10. 2:00 81% 30 km
Fr, 19.10. 20:00 70% 30 km
Fr, 19.10. 14:00 61% 30 km
Fr, 19.10. 8:00 96% 15 km
Fr, 19.10. 2:00 95% 29 km
Ortszeit Relative Feuchte Sichtweite
So, 21.10. 1:30 95% 15 km
So, 21.10. 1:20 95% -
So, 21.10. 1:10 95% -
So, 21.10. 1:00 95% 14 km
So, 21.10. 0:50 95% -
So, 21.10. 0:40 96% -
So, 21.10. 0:30 97% 16 km
So, 21.10. 0:00 97% 16 km
Sa, 20.10. 23:30 97% 7 km
Sa, 20.10. 23:00 97% 15 km
Sa, 20.10. 22:30 96% 7 km
Ortszeit Niederschlagsmenge Niederschlagsart
Sa, 20.10. 20:00 0.0 l/m2 in 12 Std. -
Sa, 20.10. 14:00 0.0 l/m2 in 6 Std. -
Sa, 20.10. 8:00 1 l/m2 in 12 Std. Regen
Sa, 20.10. 2:00 0.0 l/m2 in 6 Std. -
Fr, 19.10. 20:00 0.0 l/m2 in 12 Std. -
Fr, 19.10. 14:00 0.0 l/m2 in 6 Std. -
Fr, 19.10. 8:00 0.0 l/m2 in 12 Std. -
Fr, 19.10. 2:00 0.0 l/m2 in 6 Std. -
Ortszeit Niederschlagsmenge Niederschlagsart
So, 21.10. 1:30 0.0 l/m2 in 1 Std. -
So, 21.10. 1:20 keine Meldung -
So, 21.10. 1:10 keine Meldung -
So, 21.10. 1:00 0.0 l/m2 in 1 Std. -
So, 21.10. 0:50 keine Meldung -
So, 21.10. 0:40 keine Meldung -
So, 21.10. 0:30 0.0 l/m2 in 1 Std. -
So, 21.10. 0:00 0.1 l/m2 in 1 Std. Regen
Sa, 20.10. 23:30 0.1 l/m2 in 1 Std. Schneeregen
Sa, 20.10. 23:00 0.1 l/m2 in 1 Std. Regen
Sa, 20.10. 22:30 0.0 l/m2 in 1 Std. -
Ortszeit Stärke Spitze Richtung
km/h Bft. km/h Grad Sektor
Sa, 20.10. 20:00 4 1 32 280° W
Sa, 20.10. 14:00 20 4 30 290° W
Sa, 20.10. 8:00 11 2 29 260° W
Sa, 20.10. 2:00 7 2 14 210° SW
Fr, 19.10. 20:00 7 2 22 260° W
Fr, 19.10. 14:00 14 3 22 240° SW
Fr, 19.10. 8:00 4 1 7 150° SO
Fr, 19.10. 2:00 4 1 18 230° SW
Ortszeit Stärke Spitze Richtung
km/h Bft. km/h Grad Sektor
So, 21.10. 1:30 11 2 14 180° S
So, 21.10. 1:20 11 2 - 180° S
So, 21.10. 1:10 9 2 - 180° S
So, 21.10. 1:00 6 1 7 190° S
So, 21.10. 0:50 6 1 - 190° S
So, 21.10. 0:40 4 1 - 170° S
So, 21.10. 0:30 4 1 7 190° S
So, 21.10. 0:00 4 1 4 160° S
Sa, 20.10. 23:30 4 1 4 130° SO
Sa, 20.10. 23:00 0 0 4 - -
Sa, 20.10. 22:30 4 1 4 100° O
Ortszeit Untergrenze Bedeckung Gattung
total tief tief mittel hoch
Sa, 20.10. 20:00 6000 m 7/8 7/8 - - -
Sa, 20.10. 14:00 990 m 1/8 1/8 - - -
Sa, 20.10. 8:00 990 m 8/8 8/8 - - -
Sa, 20.10. 2:00 1500 m 8/8 8/8 - - -
Fr, 19.10. 20:00 1170 m 8/8 8/8 - - -
Fr, 19.10. 14:00 1200 m 8/8 8/8 - - -
Fr, 19.10. 8:00 1110 m 8/8 8/8 - - -
Fr, 19.10. 2:00 - 0/8 0/8 - - -
Ortszeit Bedeckungsgrad in Achtel und Wolkenuntergrenze
So, 21.10. 1:30 2(600m) 4(840m) 8(3000m)
So, 21.10. 1:20 2(600m) 4(840m) 8(3000m)
So, 21.10. 1:10 3(630m) 4(840m) 8(3000m)
So, 21.10. 1:00 1(750m) 3(870m) 8(2700m)
So, 21.10. 0:50 1(750m) 3(870m) 8(2700m)
So, 21.10. 0:40 1(690m) 8(2700m) 8(3300m)
So, 21.10. 0:30 4(810m) 8(3300m) 8(8700m)
So, 21.10. 0:00 2(630m) 7(2700m) 8(3300m)
Sa, 20.10. 23:30 7(690m) 7(3900m) 7(5400m)
Sa, 20.10. 23:00 2(750m) 7(4500m) 8(6600m)
Sa, 20.10. 22:30 5(750m) 7(4500m) 8(6300m)
Ortszeit Luftdruck NN (hPa) Tendenz (hPa in 3 Std.)
Sa, 20.10. 20:00 1029 + 1,1
Sa, 20.10. 14:00 1028 + 0,7
Sa, 20.10. 8:00 1026 + 0,6
Sa, 20.10. 2:00 1026 - 0,2
Fr, 19.10. 20:00 1026 + 0,7
Fr, 19.10. 14:00 1027 - 0,4
Fr, 19.10. 8:00 1027 0,0
Fr, 19.10. 2:00 1027 - 0,1
Ortszeit Luftdruck NN (hPa) Tendenz (hPa in 3 Std.)
So, 21.10. 1:30 1028 - 0,3
So, 21.10. 1:20 1028 keine Meldung
So, 21.10. 1:10 1028 keine Meldung
So, 21.10. 1:00 1028 0,0
So, 21.10. 0:50 1028 keine Meldung
So, 21.10. 0:40 1029 keine Meldung
So, 21.10. 0:30 1029 0,0
So, 21.10. 0:00 1029 - 0,3
Sa, 20.10. 23:30 1029 - 0,3
Sa, 20.10. 23:00 1029 - 0,3
Sa, 20.10. 22:30 1029 - 0,3
Ortszeit Schneehöhe (cm)
Sa, 20.10. 20:00 0
Sa, 20.10. 14:00 0
Sa, 20.10. 8:00 0
Sa, 20.10. 2:00 0
Fr, 19.10. 20:00 0
Fr, 19.10. 14:00 0
Fr, 19.10. 8:00 0
Fr, 19.10. 2:00 0
Ortszeit Schneehöhe (cm)
So, 21.10. 1:30 0
So, 21.10. 1:20 0
So, 21.10. 1:10 0
So, 21.10. 1:00 0
So, 21.10. 0:50 0
So, 21.10. 0:40 0
So, 21.10. 0:30 0
So, 21.10. 0:00 0
Sa, 20.10. 23:30 0
Sa, 20.10. 23:00 0
Sa, 20.10. 22:30 0
Link zu dieser Seite / Seite empfehlen

Das Wetter in ...